| time (UTC) | temp F | wind direction | speed MPH | gust MPH | rain 1hr in | rain 24hr in | rain mn in | humidity % | barometer mb |
| 20260906015626 | 54 | 0.0 | 0.0 | 0.00 | 0.00 | 0.00 | 70 | 1020.6 | |
| 20260906015122 | 53 | 0.0 | 0.0 | 0.00 | 0.00 | 0.00 | 70 | 1020.5 | |
| 20260906014617 | 54 | 0.0 | 0.0 | 0.00 | 0.00 | 0.00 | 69 | 1020.6 | |
| 20260906014113 | 54 | 0.0 | 0.0 | 0.00 | 0.00 | 0.00 | 68 | 1020.5 | |
| 20260906013550 | 54 | 0.0 | 0.0 | 0.00 | 0.00 | 0.00 | 68 | 1020.6 | |
| 20260906012927 | 54 | 0.0 | 0.0 | 0.00 | 0.00 | 0.00 | 67 | 1020.6 | |
| 20260906012306 | 54 | 0.0 | 0.0 | 0.00 | 0.00 | 0.00 | 66 | 1020.7 | |
| 20260906011759 | 54 | 0.0 | 0.0 | 0.00 | 0.00 | 0.00 | 65 | 1020.7 | |
| 20260906010750 | 54 | 0.0 | 0.0 | 0.00 | 0.00 | 0.00 | 59 | 1020.6 | |
| 20260906010246 | 54 | 0.0 | 0.0 | 0.00 | 0.00 | 0.00 | 56 | 1020.5 | |
| 20260906005741 | 54 | 0.0 | 0.0 | 0.00 | 0.00 | 0.00 | 56 | 1020.6 | |
| 20260906005236 | 55 | 0.0 | 0.0 | 0.00 | 0.00 | 0.00 | 56 | 1020.5 | |
| 20260906004732 | 55 | 0.0 | 0.0 | 0.00 | 0.00 | 0.00 | 55 | 1020.4 | |
| 20260906004227 | 55 | 0.0 | 0.0 | 0.00 | 0.00 | 0.00 | 54 | 1020.3 | |
| 20260906003723 | 55 | 0.0 | 0.0 | 0.00 | 0.00 | 0.00 | 54 | 1020.2 | |
| 20260906003218 | 55 | 0.0 | 0.0 | 0.00 | 0.00 | 0.00 | 54 | 1020.2 | |
| 20260906002734 | 55 | 0.0 | 0.0 | 0.00 | 0.00 | 0.00 | 54 | 1020.3 | |
| 20260906002110 | 55 | 0.0 | 0.0 | 0.00 | 0.00 | 0.00 | 52 | 1020.3 | |
| 20260906001507 | 56 | 0.0 | 0.0 | 0.00 | 0.00 | 0.00 | 51 | 1020.1 | |
| 20260906000903 | 55 | 0.0 | 0.0 | 0.00 | 0.00 | 0.00 | 50 | 1020.1 | |
| 20260906000403 | 55 | 0.0 | 0.0 | 0.00 | 0.00 | 0.00 | 48 | 1020.0 | |
| 20260905235857 | 56 | 0.0 | 0.0 | 0.00 | 0.00 | 0.00 | 48 | 1020.2 | |
| 20260905235351 | 56 | 0.0 | 0.0 | 0.00 | 0.00 | 0.00 | 49 | 1019.7 | |
| 20260905234907 | 56 | 0.0 | 0.0 | 0.00 | 0.00 | 0.00 | 47 | 1020.1 | |
| 20260905234342 | 56 | 0.0 | 0.0 | 0.00 | 0.00 | 0.00 | 47 | 1020.0 | |
| 20260905233918 | 56 | 0.0 | 0.0 | 0.00 | 0.00 | 0.00 | 46 | 1020.0 | |
| 20260905233333 | 57 | 0.0 | 0.0 | 0.00 | 0.00 | 0.00 | 46 | 1020.0 | |
| 20260905232828 | 57 | 0.0 | 0.0 | 0.00 | 0.00 | 0.00 | 46 | 1020.0 | |
| 20260905232324 | 57 | 0.0 | 0.0 | 0.00 | 0.00 | 0.00 | 46 | 1020.3 | |
| 20260905231900 | 57 | 0.0 | 0.0 | 0.00 | 0.00 | 0.00 | 46 | 1020.1 | |
| 20260905231315 | 57 | 0.0 | 0.0 | 0.00 | 0.00 | 0.00 | 45 | 1020.2 | |
| 20260905230711 | 57 | 0.0 | 0.0 | 0.00 | 0.00 | 0.00 | 44 | 1020.1 | |
| 20260905230108 | 57 | 0.0 | 0.0 | 0.00 | 0.00 | 0.00 | 44 | 1020.1 | |
| 20260905225504 | 58 | 0.0 | 0.0 | 0.00 | 0.00 | 0.00 | 43 | 1019.9 | |
| 20260905225001 | 58 | 0.0 | 0.0 | 0.00 | 0.00 | 0.00 | 43 | 1020.1 | |
| 20260905224456 | 58 | 0.0 | 0.0 | 0.00 | 0.00 | 0.00 | 42 | 1020.0 | |
| 20260905223952 | 59 | 0.0 | 0.0 | 0.00 | 0.00 | 0.00 | 42 | 1020.0 | |
| 20260905223448 | 59 | 0.0 | 0.0 | 0.00 | 0.00 | 0.00 | 42 | 1020.0 | |
| 20260905222943 | 59 | 0.0 | 0.0 | 0.00 | 0.00 | 0.00 | 42 | 1020.0 | |
| 20260905222438 | 59 | 0.0 | 0.0 | 0.00 | 0.00 | 0.00 | 41 | 1019.9 | |
| 20260905221934 | 59 | 0.0 | 0.0 | 0.00 | 0.00 | 0.00 | 40 | 1020.1 | |
| 20260905221429 | 60 | 0.0 | 0.0 | 0.00 | 0.00 | 0.00 | 40 | 1019.9 | |
| 20260905220925 | 61 | 0.0 | 0.0 | 0.00 | 0.00 | 0.00 | 40 | 1020.0 | |
| 20260905220420 | 62 | 0.0 | 0.0 | 0.00 | 0.00 | 0.00 | 40 | 1020.0 | |
| 20260905215916 | 62 | 0.0 | 0.0 | 0.00 | 0.00 | 0.00 | 40 | 1019.8 | |
| 20260905215412 | 62 | 0.0 | 0.0 | 0.00 | 0.00 | 0.00 | 40 | 1019.8 | |
| 20260905214808 | 63 | 0.0 | 0.0 | 0.00 | 0.00 | 0.00 | 40 | 1019.7 | |
| 20260905214205 | 63 | 0.0 | 0.0 | 0.00 | 0.00 | 0.00 | 38 | 1019.6 | |
| 20260905213621 | 63 | 0.0 | 0.0 | 0.00 | 0.00 | 0.00 | 41 | 1019.5 | |
| 20260905213056 | 62 | 0.0 | 0.0 | 0.00 | 0.00 | 0.00 | 41 | 1019.4 | |
| 20260905212551 | 62 | 0.0 | 0.0 | 0.00 | 0.00 | 0.00 | 40 | 1019.4 | |
| 20260905212047 | 62 | 0.0 | 0.0 | 0.00 | 0.00 | 0.00 | 40 | 1019.5 | |
| 20260905211542 | 62 | 0.0 | 0.0 | 0.00 | 0.00 | 0.00 | 40 | 1019.6 | |
| 20260905211037 | 62 | 0.0 | 0.0 | 0.00 | 0.00 | 0.00 | 40 | 1019.4 | |
| 20260905210533 | 62 | 0.0 | 0.0 | 0.00 | 0.00 | 0.00 | 40 | 1019.4 | |
| 20260905210049 | 62 | 0.0 | 0.0 | 0.00 | 0.00 | 0.00 | 40 | 1019.4 | |
| 20260905205524 | 62 | 0.0 | 0.0 | 0.00 | 0.00 | 0.00 | 40 | 1019.2 | |
| 20260905205039 | 62 | 0.0 | 0.0 | 0.00 | 0.00 | 0.00 | 40 | 1019.2 | |
| 20260905204514 | 62 | 0.0 | 0.0 | 0.00 | 0.00 | 0.00 | 40 | 1019.2 | |
| 20260905203911 | 62 | 0.0 | 0.0 | 0.00 | 0.00 | 0.00 | 39 | 1019.2 | |
| 20260905203307 | 62 | 0.0 | 0.0 | 0.00 | 0.00 | 0.00 | 38 | 1019.2 | |
| 20260905202704 | 63 | 0.0 | 0.0 | 0.00 | 0.00 | 0.00 | 38 | 1019.1 | |
| 20260905202159 | 63 | 0.0 | 0.0 | 0.00 | 0.00 | 0.00 | 35 | 1019.1 | |
| 20260905201654 | 63 | 0.0 | 0.0 | 0.00 | 0.00 | 0.00 | 36 | 1019.1 | |
| 20260905201150 | 63 | 0.0 | 0.0 | 0.00 | 0.00 | 0.00 | 38 | 1019.2 | |
| 20260905200645 | 62 | 0.0 | 0.0 | 0.00 | 0.00 | 0.00 | 41 | 1019.2 | |
| 20260905200140 | 62 | 0.0 | 0.0 | 0.00 | 0.00 | 0.00 | 41 | 1018.9 | |
| 20260905195636 | 62 | 0.0 | 0.0 | 0.00 | 0.00 | 0.00 | 41 | 1018.9 | |
| 20260905195131 | 61 | 0.0 | 0.0 | 0.00 | 0.00 | 0.00 | 40 | 1018.9 | |
| 20260905194627 | 61 | 0.0 | 0.0 | 0.00 | 0.00 | 0.00 | 39 | 1018.7 | |
| 20260905194122 | 61 | 0.0 | 0.0 | 0.00 | 0.00 | 0.00 | 37 | 1018.6 | |
| 20260905193618 | 61 | 0.0 | 0.0 | 0.00 | 0.00 | 0.00 | 36 | 1018.7 | |
| 20260905193114 | 61 | 0.0 | 0.0 | 0.00 | 0.00 | 0.00 | 37 | 1018.7 | |
| 20260905192510 | 62 | 0.0 | 0.0 | 0.00 | 0.00 | 0.00 | 34 | 1018.5 | |
| 20260905191907 | 62 | 0.0 | 0.0 | 0.00 | 0.00 | 0.00 | 34 | 1018.5 | |
| 20260905191303 | 63 | 0.0 | 0.0 | 0.00 | 0.00 | 0.00 | 32 | 1018.5 | |
| 20260905190759 | 63 | 0.0 | 0.0 | 0.00 | 0.00 | 0.00 | 30 | 1018.4 | |
| 20260905190255 | 64 | 0.0 | 0.0 | 0.00 | 0.00 | 0.00 | 30 | 1018.3 | |
| 20260905185750 | 64 | 0.0 | 0.0 | 0.00 | 0.00 | 0.00 | 27 | 1018.3 | |
| 20260905185246 | 65 | 0.0 | 0.0 | 0.00 | 0.00 | 0.00 | 28 | 1018.1 | |
| 20260905184741 | 65 | 0.0 | 0.0 | 0.00 | 0.00 | 0.00 | 26 | 1018.3 | |
| 20260905184236 | 65 | 0.0 | 0.0 | 0.00 | 0.00 | 0.00 | 25 | 1018.3 | |
| 20260905183731 | 66 | 0 | 0.0 | 1.0 | 0.00 | 0.00 | 0.00 | 25 | 1018.0 |
| 20260905183228 | 66 | 0 | 0.0 | 1.0 | 0.00 | 0.00 | 0.00 | 23 | 1018.0 |
| 20260905182742 | 66 | 0 | 0.0 | 1.0 | 0.00 | 0.00 | 0.00 | 23 | 1017.8 |
| 20260905182217 | 66 | 337 | 0.0 | 2.0 | 0.00 | 0.00 | 0.00 | 23 | 1017.7 |
| 20260905181713 | 66 | 0 | 0.0 | 1.0 | 0.00 | 0.00 | 0.00 | 23 | 1017.8 |
| 20260905181129 | 66 | 0.0 | 0.0 | 0.00 | 0.00 | 0.00 | 22 | 1017.6 | |
| 20260905180506 | 66 | 0 | 0.0 | 1.0 | 0.00 | 0.00 | 0.00 | 23 | 1017.6 |
| 20260905175902 | 66 | 0 | 0.0 | 1.0 | 0.00 | 0.00 | 0.00 | 22 | 1017.4 |
| 20260905175458 | 66 | 0.0 | 0.0 | 0.00 | 0.00 | 0.00 | 21 | 1017.3 | |
| 20260905174954 | 66 | 0.0 | 0.0 | 0.00 | 0.00 | 0.00 | 20 | 1017.2 | |
| 20260905174509 | 67 | 0.0 | 0.0 | 0.00 | 0.00 | 0.00 | 15 | 1017.4 | |
| 20260905173945 | 68 | 0.0 | 0.0 | 0.00 | 0.00 | 0.00 | 15 | 1017.1 | |
| 20260905173440 | 69 | 0.0 | 0.0 | 0.00 | 0.00 | 0.00 | 20 | 1017.0 | |
| 20260905172935 | 70 | 0.0 | 0.0 | 0.00 | 0.00 | 0.00 | 15 | 1016.7 | |
| 20260905172431 | 70 | 90 | 1.0 | 2.0 | 0.00 | 0.00 | 0.00 | 15 | 1016.9 |
| 20260905171926 | 71 | 0.0 | 0.0 | 0.00 | 0.00 | 0.00 | 15 | 1016.7 | |
| 20260905171420 | 71 | 0.0 | 0.0 | 0.00 | 0.00 | 0.00 | 15 | 1016.8 | |
| 20260905170915 | 72 | 1.0 | 2.0 | 0.00 | 0.00 | 0.00 | 15 | 1016.7 | |
| 20260905170312 | 72 | 1.0 | 3.0 | 0.00 | 0.00 | 0.00 | 15 | 1016.8 | |
| 20260905165748 | 72 | 90 | 2.0 | 3.0 | 0.00 | 0.00 | 0.00 | 15 | 1016.6 |
| 20260905165104 | 72 | 0.0 | 1.0 | 0.00 | 0.00 | 0.00 | 15 | 1016.7 | |
| 20260905164601 | 72 | 135 | 0.0 | 2.0 | 0.00 | 0.00 | 0.00 | 15 | 1016.5 |
| 20260905164056 | 73 | 0.0 | 2.0 | 0.00 | 0.00 | 0.00 | 15 | 1016.8 | |
| 20260905163551 | 73 | 0 | 1.0 | 2.0 | 0.00 | 0.00 | 0.00 | 15 | 1016.8 |
| 20260905163047 | 73 | 1.0 | 2.0 | 0.00 | 0.00 | 0.00 | 15 | 1016.5 | |
| 20260905162541 | 73 | 2.0 | 3.0 | 0.00 | 0.00 | 0.00 | 15 | 1016.4 | |
| 20260905162037 | 74 | 45 | 2.0 | 3.0 | 0.00 | 0.00 | 0.00 | 15 | 1016.3 |
| 20260905161532 | 74 | 90 | 0.0 | 1.0 | 0.00 | 0.00 | 0.00 | 15 | 1016.3 |
| 20260905161058 | 75 | 90 | 1.0 | 3.0 | 0.00 | 0.00 | 0.00 | 19 | 1016.5 |
| 20260905160552 | 76 | 90 | 3.0 | 5.0 | 0.00 | 0.00 | 0.00 | 19 | 1016.3 |
| 20260905160047 | 76 | 90 | 3.0 | 4.0 | 0.00 | 0.00 | 0.00 | 19 | 1016.2 |
| 20260905155542 | 76 | 90 | 3.0 | 3.0 | 0.00 | 0.00 | 0.00 | 19 | 1016.4 |
| 20260905155038 | 77 | 90 | 2.0 | 3.0 | 0.00 | 0.00 | 0.00 | 19 | 1016.5 |
| 20260905154533 | 76 | 90 | 3.0 | 3.0 | 0.00 | 0.00 | 0.00 | 19 | 1016.4 |
| 20260905154049 | 76 | 90 | 1.0 | 3.0 | 0.00 | 0.00 | 0.00 | 19 | 1016.2 |
| 20260905153524 | 75 | 135 | 0.0 | 1.0 | 0.00 | 0.00 | 0.00 | 19 | 1016.3 |
| 20260905153020 | 75 | 2.0 | 3.0 | 0.00 | 0.00 | 0.00 | 19 | 1016.1 | |
| 20260905152515 | 75 | 1.0 | 2.0 | 0.00 | 0.00 | 0.00 | 19 | 1016.2 | |
| 20260905151911 | 75 | 1.0 | 2.0 | 0.00 | 0.00 | 0.00 | 19 | 1016.2 | |
| 20260905151308 | 75 | 90 | 3.0 | 3.0 | 0.00 | 0.00 | 0.00 | 19 | 1016.2 |
| 20260905150704 | 74 | 90 | 3.0 | 5.0 | 0.00 | 0.00 | 0.00 | 19 | 1016.3 |
| 20260905150201 | 74 | 90 | 2.0 | 3.0 | 0.00 | 0.00 | 0.00 | 19 | 1016.4 |
| 20260905145657 | 74 | 0 | 4.0 | 6.0 | 0.00 | 0.00 | 0.00 | 19 | 1016.4 |
| 20260905145152 | 74 | 90 | 3.0 | 5.0 | 0.00 | 0.00 | 0.00 | 19 | 1016.4 |
| 20260905144648 | 74 | 90 | 2.0 | 3.0 | 0.00 | 0.00 | 0.00 | 19 | 1016.6 |
| 20260905144143 | 75 | 3.0 | 4.0 | 0.00 | 0.00 | 0.00 | 19 | 1016.6 | |
| 20260905143638 | 75 | 0 | 2.0 | 3.0 | 0.00 | 0.00 | 0.00 | 19 | 1016.6 |
| 20260905143134 | 75 | 4.0 | 5.0 | 0.00 | 0.00 | 0.00 | 19 | 1016.7 | |
| 20260905142629 | 75 | 315 | 3.0 | 4.0 | 0.00 | 0.00 | 0.00 | 19 | 1016.6 |
| 20260905142125 | 75 | 90 | 4.0 | 5.0 | 0.00 | 0.00 | 0.00 | 19 | 1016.6 |
| 20260905141620 | 75 | 4.0 | 6.0 | 0.00 | 0.00 | 0.00 | 19 | 1016.6 | |
| 20260905141115 | 75 | 0 | 4.0 | 6.0 | 0.00 | 0.00 | 0.00 | 19 | 1016.8 |
| 20260905140632 | 75 | 90 | 2.0 | 3.0 | 0.00 | 0.00 | 0.00 | 19 | 1016.8 |
| 20260905140008 | 75 | 90 | 3.0 | 6.0 | 0.00 | 0.00 | 0.00 | 19 | 1016.9 |
| 20260905135425 | 75 | 315 | 6.0 | 7.0 | 0.00 | 0.00 | 0.00 | 19 | 1016.9 |
| 20260905134802 | 75 | 3.0 | 6.0 | 0.00 | 0.00 | 0.00 | 19 | 1017.1 | |
| 20260905134358 | 75 | 315 | 3.0 | 6.0 | 0.00 | 0.00 | 0.00 | 19 | 1017.0 |
| 20260905133853 | 75 | 3.0 | 5.0 | 0.00 | 0.00 | 0.00 | 19 | 1017.1 | |
| 20260905133349 | 76 | 0 | 4.0 | 6.0 | 0.00 | 0.00 | 0.00 | 19 | 1016.9 |
| 20260905132844 | 77 | 2.0 | 3.0 | 0.00 | 0.00 | 0.00 | 19 | 1016.7 | |
| 20260905132340 | 77 | 0 | 4.0 | 6.0 | 0.00 | 0.00 | 0.00 | 19 | 1016.8 |
| 20260905131855 | 78 | 315 | 3.0 | 5.0 | 0.00 | 0.00 | 0.00 | 19 | 1016.6 |
| 20260905131331 | 78 | 0 | 2.0 | 3.0 | 0.00 | 0.00 | 0.00 | 19 | 1016.7 |
| 20260905130855 | 79 | 0 | 3.0 | 4.0 | 0.00 | 0.00 | 0.00 | 19 | 1016.6 |
| 20260905130351 | 80 | 0 | 3.0 | 6.0 | 0.00 | 0.00 | 0.00 | 19 | 1016.6 |
| 20260905125846 | 81 | 0 | 5.0 | 6.0 | 0.00 | 0.00 | 0.00 | 19 | 1016.5 |
| 20260905125341 | 81 | 3.0 | 3.0 | 0.00 | 0.00 | 0.00 | 19 | 1016.4 | |
| 20260905124837 | 80 | 0 | 3.0 | 4.0 | 0.00 | 0.00 | 0.00 | 19 | 1016.5 |
| 20260905124352 | 80 | 0 | 4.0 | 5.0 | 0.00 | 0.00 | 0.00 | 19 | 1016.6 |
| 20260905123829 | 80 | 337 | 4.0 | 5.0 | 0.00 | 0.00 | 0.00 | 19 | 1016.5 |
| 20260905123322 | 81 | 3.0 | 6.0 | 0.00 | 0.00 | 0.00 | 19 | 1016.5 | |
| 20260905122817 | 82 | 0 | 3.0 | 7.0 | 0.00 | 0.00 | 0.00 | 19 | 1016.3 |
| 20260905122314 | 81 | 270 | 3.0 | 4.0 | 0.00 | 0.00 | 0.00 | 19 | 1016.5 |
| 20260905121710 | 80 | 90 | 1.0 | 2.0 | 0.00 | 0.00 | 0.00 | 19 | 1016.4 |
| 20260905121106 | 80 | 90 | 1.0 | 2.0 | 0.00 | 0.00 | 0.00 | 19 | 1016.5 |
| 20260905120523 | 81 | 135 | 4.0 | 6.0 | 0.00 | 0.00 | 0.00 | 19 | 1016.3 |
| 20260905115959 | 81 | 337 | 1.0 | 3.0 | 0.00 | 0.00 | 0.00 | 19 | 1016.4 |
| 20260905115454 | 82 | 90 | 3.0 | 5.0 | 0.00 | 0.00 | 0.00 | 19 | 1016.7 |
| 20260905114950 | 82 | 90 | 3.0 | 5.0 | 0.00 | 0.00 | 0.00 | 19 | 1016.5 |
| 20260905114445 | 83 | 90 | 10.0 | 12.0 | 0.00 | 0.00 | 0.00 | 19 | 1016.7 |
| 20260905114000 | 83 | 90 | 2.0 | 3.0 | 0.00 | 0.00 | 0.00 | 19 | 1016.8 |
| 20260905113435 | 82 | 135 | 3.0 | 5.0 | 0.00 | 0.00 | 0.00 | 19 | 1016.4 |
| 20260905112931 | 80 | 90 | 5.0 | 7.0 | 0.00 | 0.00 | 0.00 | 19 | 1016.5 |
| 20260905112426 | 80 | 90 | 6.0 | 8.0 | 0.00 | 0.00 | 0.00 | 19 | 1016.6 |
| 20260905111922 | 80 | 157 | 4.0 | 6.0 | 0.00 | 0.00 | 0.00 | 19 | 1016.6 |
| 20260905111417 | 80 | 90 | 7.0 | 9.0 | 0.00 | 0.00 | 0.00 | 19 | 1016.5 |
| 20260905110913 | 81 | 135 | 5.0 | 6.0 | 0.00 | 0.00 | 0.00 | 19 | 1016.6 |
| 20260905110310 | 80 | 225 | 3.0 | 5.0 | 0.00 | 0.00 | 0.00 | 19 | 1016.5 |
| 20260905105706 | 79 | 0 | 7.0 | 10.0 | 0.00 | 0.00 | 0.00 | 19 | 1016.4 |
| 20260905105103 | 79 | 90 | 5.0 | 6.0 | 0.00 | 0.00 | 0.00 | 19 | 1016.6 |
| 20260905104720 | 79 | 7.0 | 9.0 | 0.00 | 0.00 | 0.00 | 19 | 1016.6 | |
| 20260905104156 | 79 | 5.0 | 7.0 | 0.00 | 0.00 | 0.00 | 19 | 1016.6 | |
| 20260905103651 | 79 | 180 | 6.0 | 10.0 | 0.00 | 0.00 | 0.00 | 19 | 1016.5 |
| 20260905103146 | 79 | 8.0 | 12.0 | 0.00 | 0.00 | 0.00 | 19 | 1016.5 | |
| 20260905102643 | 79 | 90 | 6.0 | 9.0 | 0.00 | 0.00 | 0.00 | 19 | 1016.4 |
| 20260905102137 | 79 | 4.0 | 6.0 | 0.00 | 0.00 | 0.00 | 19 | 1016.5 | |
| 20260905101633 | 80 | 90 | 6.0 | 9.0 | 0.00 | 0.00 | 0.00 | 19 | 1016.4 |
| 20260905101148 | 79 | 90 | 4.0 | 7.0 | 0.00 | 0.00 | 0.00 | 19 | 1016.4 |
| 20260905100624 | 80 | 315 | 6.0 | 9.0 | 0.00 | 0.00 | 0.00 | 19 | 1016.7 |
| 20260905100119 | 80 | 315 | 6.0 | 9.0 | 0.00 | 0.00 | 0.00 | 19 | 1016.6 |
| 20260905095615 | 80 | 6.0 | 9.0 | 0.00 | 0.00 | 0.00 | 19 | 1016.2 | |
| 20260905095011 | 80 | 0 | 5.0 | 7.0 | 0.00 | 0.00 | 0.00 | 19 | 1016.6 |
| 20260905094408 | 79 | 90 | 9.0 | 13.0 | 0.00 | 0.00 | 0.00 | 19 | 1016.7 |
| 20260905093805 | 79 | 7.0 | 10.0 | 0.00 | 0.00 | 0.00 | 19 | 1016.7 | |
| 20260905093201 | 79 | 292 | 7.0 | 10.0 | 0.00 | 0.00 | 0.00 | 19 | 1016.6 |
| 20260905092818 | 79 | 90 | 9.0 | 12.0 | 0.00 | 0.00 | 0.00 | 19 | 1016.7 |
| 20260905092253 | 79 | 9.0 | 12.0 | 0.00 | 0.00 | 0.00 | 19 | 1016.7 | |
| 20260905091809 | 79 | 0 | 9.0 | 18.0 | 0.00 | 0.00 | 0.00 | 19 | 1016.7 |
| 20260905091244 | 78 | 90 | 9.0 | 19.0 | 0.00 | 0.00 | 0.00 | 19 | 1016.7 |
| 20260905090800 | 78 | 90 | 9.0 | 12.0 | 0.00 | 0.00 | 0.00 | 19 | 1016.6 |
| 20260905090235 | 78 | 10.0 | 13.0 | 0.00 | 0.00 | 0.00 | 19 | 1016.4 | |
| 20260905085751 | 78 | 90 | 9.0 | 10.0 | 0.00 | 0.00 | 0.00 | 19 | 1016.5 |
| 20260905085246 | 78 | 90 | 9.0 | 12.0 | 0.00 | 0.00 | 0.00 | 19 | 1016.4 |
| 20260905084722 | 78 | 0 | 11.0 | 15.0 | 0.00 | 0.00 | 0.00 | 19 | 1016.4 |
| 20260905084217 | 78 | 315 | 6.0 | 9.0 | 0.00 | 0.00 | 0.00 | 19 | 1016.1 |
| 20260905083714 | 78 | 315 | 13.0 | 18.0 | 0.00 | 0.00 | 0.00 | 19 | 1015.9 |
| 20260905083110 | 78 | 0 | 11.0 | 15.0 | 0.00 | 0.00 | 0.00 | 19 | 1015.8 |
| 20260905082506 | 77 | 8.0 | 12.0 | 0.00 | 0.00 | 0.00 | 19 | 1015.5 | |
| 20260905081903 | 77 | 0 | 11.0 | 15.0 | 0.00 | 0.00 | 0.00 | 19 | 1015.5 |
| 20260905081359 | 77 | 15.0 | 20.0 | 0.00 | 0.00 | 0.00 | 19 | 1015.6 | |
| 20260905080854 | 76 | 0 | 12.0 | 18.0 | 0.00 | 0.00 | 0.00 | 19 | 1015.4 |
| 20260905080350 | 76 | 12.0 | 16.0 | 0.00 | 0.00 | 0.00 | 19 | 1015.3 | |
| 20260905075845 | 76 | 14.0 | 17.0 | 0.00 | 0.00 | 0.00 | 19 | 1015.1 | |
| 20260905075339 | 76 | 0 | 9.0 | 11.0 | 0.00 | 0.00 | 0.00 | 19 | 1015.0 |
| 20260905074835 | 77 | 0 | 9.0 | 13.0 | 0.00 | 0.00 | 0.00 | 19 | 1014.8 |
| 20260905074330 | 77 | 0 | 15.0 | 18.0 | 0.00 | 0.00 | 0.00 | 19 | 1014.9 |
| 20260905073845 | 78 | 0 | 13.0 | 19.0 | 0.00 | 0.00 | 0.00 | 19 | 1014.8 |
| 20260905073320 | 78 | 0 | 11.0 | 16.0 | 0.00 | 0.00 | 0.00 | 19 | 1014.7 |
| 20260905072816 | 78 | 0 | 12.0 | 17.0 | 0.00 | 0.00 | 0.00 | 19 | 1014.6 |
| 20260905072313 | 78 | 90 | 12.0 | 15.0 | 0.00 | 0.00 | 0.00 | 19 | 1014.5 |
| 20260905071709 | 78 | 0 | 6.0 | 9.0 | 0.00 | 0.00 | 0.00 | 15 | 1014.3 |
| 20260905071126 | 78 | 4.0 | 6.0 | 0.00 | 0.00 | 0.00 | 15 | 1014.3 | |
| 20260905070502 | 78 | 135 | 3.0 | 6.0 | 0.00 | 0.00 | 0.00 | 15 | 1013.9 |
| 20260905070139 | 78 | 0 | 5.0 | 6.0 | 0.00 | 0.00 | 0.00 | 15 | 1014.1 |
| 20260905065554 | 78 | 315 | 5.0 | 7.0 | 0.00 | 0.00 | 0.00 | 15 | 1013.8 |
| 20260905065049 | 80 | 0 | 6.0 | 9.0 | 0.00 | 0.00 | 0.00 | 15 | 1013.6 |
| 20260905064545 | 81 | 3.0 | 5.0 | 0.00 | 0.00 | 0.00 | 19 | 1013.1 | |
| 20260905064040 | 83 | 0 | 3.0 | 3.0 | 0.00 | 0.00 | 0.00 | 19 | 1012.9 |
| 20260905063616 | 84 | 0.0 | 0.0 | 0.00 | 0.00 | 0.00 | 19 | 1012.8 | |
| 20260905063031 | 82 | 0.0 | 0.0 | 0.00 | 0.00 | 0.00 | 15 | 1012.7 | |
| 20260905062526 | 81 | 0.0 | 0.0 | 0.00 | 0.00 | 0.00 | 15 | 1012.7 | |
| 20260905062042 | 82 | 0.0 | 0.0 | 0.00 | 0.00 | 0.00 | 19 | 1012.6 | |
| 20260905061538 | 82 | 0.0 | 0.0 | 0.00 | 0.00 | 0.00 | 19 | 1012.5 | |
| 20260905061033 | 84 | 0.0 | 0.0 | 0.00 | 0.00 | 0.00 | 19 | 1012.4 | |
| 20260905060410 | 82 | 0.0 | 0.0 | 0.00 | 0.00 | 0.00 | 19 | 1012.6 | |
| 20260905055807 | 80 | 0.0 | 0.0 | 0.00 | 0.00 | 0.00 | 15 | 1012.5 | |
| 20260905055202 | 78 | 0.0 | 0.0 | 0.00 | 0.00 | 0.00 | 15 | 1012.4 | |
| 20260905054658 | 77 | 0.0 | 0.0 | 0.00 | 0.00 | 0.00 | 15 | 1012.4 | |
| 20260905054154 | 77 | 0.0 | 0.0 | 0.00 | 0.00 | 0.00 | 15 | 1012.2 | |
| 20260905053649 | 74 | 0.0 | 0.0 | 0.00 | 0.00 | 0.00 | 20 | 1012.2 | |
| 20260905053145 | 73 | 0.0 | 0.0 | 0.00 | 0.00 | 0.00 | 20 | 1012.0 | |
| 20260905052640 | 72 | 0.0 | 0.0 | 0.00 | 0.00 | 0.00 | 20 | 1011.8 | |
| 20260905052136 | 71 | 0.0 | 0.0 | 0.00 | 0.00 | 0.00 | 22 | 1011.8 | |
| 20260905051631 | 69 | 0.0 | 0.0 | 0.00 | 0.00 | 0.00 | 24 | 1011.7 | |
| 20260905051147 | 68 | 0.0 | 0.0 | 0.00 | 0.00 | 0.00 | 30 | 1011.7 | |
| 20260905050622 | 66 | 0.0 | 0.0 | 0.00 | 0.00 | 0.00 | 33 | 1011.5 | |
| 20260905050137 | 64 | 0.0 | 0.0 | 0.00 | 0.00 | 0.00 | 38 | 1011.6 | |
| 20260905045614 | 62 | 0.0 | 0.0 | 0.00 | 0.00 | 0.00 | 44 | 1011.5 | |
| 20260905045010 | 60 | 0.0 | 0.0 | 0.00 | 0.00 | 0.00 | 43 | 1011.6 | |
| 20260905044412 | 59 | 0.0 | 0.0 | 0.00 | 0.00 | 0.00 | 42 | 1011.4 | |
| 20260905043804 | 59 | 0.0 | 0.0 | 0.00 | 0.00 | 0.00 | 41 | 1011.2 | |
| 20260905043301 | 59 | 0.0 | 0.0 | 0.00 | 0.00 | 0.00 | 41 | 1011.3 | |
| 20260905042816 | 59 | 0.0 | 0.0 | 0.00 | 0.00 | 0.00 | 42 | 1011.3 | |
| 20260905042251 | 59 | 0.0 | 0.0 | 0.00 | 0.00 | 0.00 | 42 | 1011.2 | |
| 20260905041747 | 59 | 0.0 | 0.0 | 0.00 | 0.00 | 0.00 | 41 | 1011.2 | |
| 20260905041243 | 59 | 0.0 | 0.0 | 0.00 | 0.00 | 0.00 | 41 | 1011.2 | |
| 20260905040738 | 59 | 0.0 | 0.0 | 0.00 | 0.00 | 0.00 | 40 | 1011.1 | |
| 20260905040234 | 59 | 0.0 | 0.0 | 0.00 | 0.00 | 0.00 | 40 | 1011.0 | |
| 20260905035729 | 59 | 0.0 | 0.0 | 0.00 | 0.00 | 0.00 | 40 | 1010.9 | |
| 20260905035225 | 60 | 0.0 | 0.0 | 0.00 | 0.00 | 0.00 | 39 | 1010.9 | |
| 20260905034721 | 60 | 0.0 | 0.0 | 0.00 | 0.00 | 0.00 | 39 | 1011.0 | |
| 20260905034216 | 61 | 0.0 | 0.0 | 0.00 | 0.00 | 0.00 | 40 | 1010.9 | |
| 20260905033713 | 61 | 0.0 | 0.0 | 0.00 | 0.00 | 0.00 | 40 | 1011.0 | |
| 20260905033109 | 61 | 0.0 | 0.0 | 0.00 | 0.00 | 0.00 | 40 | 1010.9 | |
| 20260905032506 | 61 | 0.0 | 0.0 | 0.00 | 0.00 | 0.00 | 37 | 1010.9 | |
| 20260905031902 | 62 | 0.0 | 0.0 | 0.00 | 0.00 | 0.00 | 37 | 1010.8 | |
| 20260905031458 | 62 | 0.0 | 0.0 | 0.00 | 0.00 | 0.00 | 37 | 1011.0 | |
| 20260905030954 | 62 | 0.0 | 0.0 | 0.00 | 0.00 | 0.00 | 35 | 1010.8 | |
| 20260905030449 | 63 | 0.0 | 0.0 | 0.00 | 0.00 | 0.00 | 35 | 1010.9 | |
| 20260905025945 | 63 | 0.0 | 0.0 | 0.00 | 0.00 | 0.00 | 33 | 1010.7 | |
| 20260905025440 | 63 | 0.0 | 0.0 | 0.00 | 0.00 | 0.00 | 37 | 1010.8 | |
| 20260905024936 | 63 | 0.0 | 0.0 | 0.00 | 0.00 | 0.00 | 38 | 1010.7 | |
| 20260905024431 | 62 | 180 | 0.0 | 1.0 | 0.00 | 0.00 | 0.00 | 40 | 1010.7 |
| 20260905023926 | 61 | 0.0 | 0.0 | 0.00 | 0.00 | 0.00 | 35 | 1010.8 | |
| 20260905023422 | 61 | 0.0 | 0.0 | 0.00 | 0.00 | 0.00 | 34 | 1010.9 | |
| 20260905022917 | 62 | 0.0 | 0.0 | 0.00 | 0.00 | 0.00 | 33 | 1010.7 | |
| 20260905022413 | 62 | 0.0 | 0.0 | 0.00 | 0.00 | 0.00 | 33 | 1010.7 | |
| 20260905021810 | 62 | 0.0 | 0.0 | 0.00 | 0.00 | 0.00 | 32 | 1010.9 | |
| 20260905021205 | 63 | 0.0 | 0.0 | 0.00 | 0.00 | 0.00 | 31 | 1010.8 | |
| 20260905020622 | 64 | 0.0 | 0.0 | 0.00 | 0.00 | 0.00 | 27 | 1010.8 | |
| 20260905020158 | 64 | 0.0 | 0.0 | 0.00 | 0.00 | 0.00 | 27 | 1010.9 |